Location: Buckeye Ditch
(40.9104°N, 122.9517°W)
Time: 12:11:23
(UTC+00:00)

Tiros 1 despin weight - Pass Details

Date: 18 May 2025
Orbit: 563 x 601 km, 48.2° (Epoch: 22 June)

Event Time Altitude Azimuth Distance (km) Brightness Sun altitude
Rises 09:38:43 0° 188° (S) 2,791 - -25.9°
Reaches altitude 10° 09:41:56 10° 163° (SSE) 1,905 - -25.7°
Maximum altitude 09:44:12 14° 132° (SE) 1,668 - -25.5°
Exits shadow 09:45:34 12° 112° (ESE) 1,765 ? -25.4°
Drops below altitude 10° 09:46:29 10° 100° (E) 1,923 ? -25.3°
Sets 09:49:45 0° 75° (ENE) 2,836 ? -25.0°
